START_TIME,STEP,MOV.,M29,t_acc.,H22,t_acc.,H26,t_acc.,H30,t_acc.
1979-08-02 09:00:30.730 ,0,0,0.,24.0,0.,24.0,0.,24.0,0.,24.0
1979-08-02 09:00:54.730 ,0,1,0.,24.0,0.,24.0,0.,24.0,0.,24.0
1979-08-02 09:01:18.730 ,0,0,0.,24.0,0.,24.0,0.,24.0,0.,24.0
1979-08-02 09:01:42.720 ,1,1,0.,24.0,0.,24.0,0.,24.0,0.,24.0
1979-08-02 09:02:06.720 ,1,0,0.,24.0,0.,24.0,0.,24.0,0.,24.0
1979-08-02 09:02:30.730 ,2,1,0.,24.0,0.,24.0,0.,24.0,0.,24.0
1979-08-02 09:02:54.730 ,2,0,0.,24.0,0.,24.0,0.,24.0,0.,24.0
1979-08-02 09:03:18.730 ,3,1,0.,24.0,0.,24.0,0.,24.0,0.,24.0
1979-08-02 09:03:42.730 ,3,0,0.,24.0,0.,24.0,0.,24.0,0.,24.0
1979-08-02 09:04:06.730 ,4,1,0.,24.0,0.,24.0,0.,24.0,0.,24.0
1979-08-02 09:04:30.730 ,0,0,0.,24.0,0.,24.0,0.,24.0,0.,24.0
1979-08-02 09:04:54.730 ,5,1,0.,24.0,0.,24.0,0.,24.0,0.,24.0
1979-08-02 09:05:18.730 ,5,0,,0,,0,,0,,0
1979-08-02 09:05:42.730 ,6,1,0.,24.0,0.,24.0,0.,24.0,0.,24.0
1979-08-02 09:06:06.730 ,6,0,0.,24.0,0.,24.0,0.,24.0,0.,24.0
1979-08-02 09:06:30.730 ,7,0,0.,24.0,0.,24.0,0.,24.0,0.,24.0
1979-08-02 09:06:54.730 ,7,0,0.,24.0,0.,24.0,0.,24.0,0.,24.0
1979-08-02 09:07:18.730 ,5,1,0.,24.0,0.,24.0,0.,24.0,0.,24.0
1979-08-02 09:07:42.730 ,1,1,0.,24.0,0.,24.0,0.,24.0,0.,24.0
1979-08-02 09:08:06.730 ,2,1,0.,24.0,0.,24.0,0.,24.0,0.,24.0
1979-08-02 09:08:30.730 ,6,1,0.,24.0,0.,24.0,0.,24.0,0.,24.0
1979-08-02 09:08:54.730 ,5,1,0.,24.0,0.,24.0,0.,24.0,0.,24.0
1979-08-02 09:09:18.730 ,1,1,0.,24.0,0.,24.0,0.,24.0,0.,24.0
1979-08-02 09:09:42.730 ,2,1,0.,24.0,0.,24.0,0.,24.0,0.,24.0
1979-08-02 09:10:06.730 ,6,1,0.,24.0,0.,24.0,0.,24.0,0.,24.0
1979-08-02 09:10:30.730 ,5,1,0.,24.0,0.,24.0,0.,24.0,0.,24.0
1979-08-02 09:10:54.730 ,1,1,0.,24.0,0.,24.0,0.,24.0,0.,24.0
1979-08-02 09:11:18.730 ,2,1,0.,24.0,0.,24.0,0.,24.0,0.,24.0
1979-08-02 09:11:42.730 ,6,1,0.,24.0,0.,24.0,0.,24.0,0.,24.0
1979-08-02 09:12:06.730 ,5,1,0.,24.0,0.,24.0,0.,24.0,0.,24.0
1979-08-02 09:12:30.730 ,1,1,0.,24.0,0.,24.0,0.,24.0,0.,24.0
1979-08-02 09:12:54.730 ,2,1,1.,24.0,0.,24.0,0.,24.0,0.,24.0
1979-08-02 09:13:18.730 ,6,1,0.,24.0,0.,24.0,0.,24.0,0.,24.0
1979-08-02 09:13:42.730 ,5,1,0.,24.0,0.,24.0,0.,24.0,0.,24.0
1979-08-02 09:14:06.730 ,1,1,0.,24.0,0.,24.0,0.,24.0,0.,24.0
1979-08-02 09:14:30.730 ,2,1,0.,24.0,0.,24.0,0.,24.0,0.,24.0
1979-08-02 09:14:54.730 ,6,1,0.,24.0,0.,24.0,0.,24.0,0.,24.0
1979-08-02 09:15:18.730 ,5,1,0.,24.0,0.,24.0,0.,24.0,0.,24.0
1979-08-02 09:15:42.730 ,1,1,0.,24.0,0.,24.0,0.,24.0,0.,24.0
1979-08-02 09:16:06.730 ,2,1,0.,24.0,0.,24.0,0.,24.0,0.,24.0
1979-08-02 09:16:30.730 ,6,1,0.,24.0,0.,24.0,0.,24.0,0.,24.0
1979-08-02 09:16:54.730 ,5,1,0.,24.0,0.,24.0,0.,24.0,0.,24.0
1979-08-02 09:17:18.720 ,1,1,0.,24.0,0.,24.0,0.,24.0,0.,24.0
1979-08-02 09:17:42.720 ,0,0,0.,24.0,0.,24.0,0.,24.0,0.,24.0
1979-08-02 09:18:06.720 ,0,0,0.,24.0,0.,24.0,0.,24.0,0.,24.0
1979-08-02 09:18:30.720 ,5,1,0.,24.0,0.,24.0,0.,24.0,0.,24.0
1979-08-02 09:18:54.720 ,5,0,0.,24.0,0.,24.0,0.,24.0,0.,24.0
1979-08-02 09:19:18.720 ,4,1,0.,24.0,0.,24.0,0.,24.0,0.,24.0
1979-08-02 09:19:42.720 ,4,0,0.,24.0,0.,24.0,0.,24.0,0.,24.0
1979-08-02 09:20:06.720 ,3,1,0.,24.0,0.,24.0,0.,24.0,0.,24.0
1979-08-02 09:20:30.720 ,3,0,0.,24.0,0.,24.0,0.,24.0,0.,24.0
1979-08-02 09:20:54.720 ,2,1,0.,24.0,0.,24.0,0.,24.0,0.,24.0
1979-08-02 09:21:18.720 ,2,0,0.,24.0,0.,24.0,0.,24.0,0.,24.0
1979-08-02 09:21:42.720 ,1,1,0.,24.0,0.,24.0,0.,24.0,0.,24.0
1979-08-02 09:22:06.720 ,1,0,0.,24.0,0.,24.0,0.,24.0,0.,24.0
1979-08-02 09:22:30.720 ,0,1,0.,24.0,0.,24.0,0.,24.0,0.,24.0
1979-08-02 09:22:54.720 ,0,0,0.,24.0,0.,24.0,0.,24.0,0.,24.0
1979-08-02 09:23:18.720 ,0,1,0.,24.0,0.,24.0,0.,24.0,0.,24.0
1979-08-02 09:23:42.720 ,0,0,0.,24.0,0.,24.0,0.,24.0,0.,24.0
1979-08-02 09:24:06.720 ,1,1,0.,24.0,0.,24.0,0.,24.0,0.,24.0
1979-08-02 09:24:30.720 ,1,0,0.,24.0,0.,24.0,0.,24.0,0.,24.0
1979-08-02 09:24:54.720 ,2,1,0.,24.0,0.,24.0,0.,24.0,0.,24.0
1979-08-02 09:25:18.720 ,2,0,0.,24.0,0.,24.0,0.,24.0,0.,24.0
1979-08-02 09:25:42.720 ,3,1,0.,24.0,0.,24.0,0.,24.0,0.,24.0
1979-08-02 09:26:06.720 ,3,0,0.,24.0,0.,24.0,0.,24.0,0.,24.0
1979-08-02 09:26:30.720 ,4,1,0.,24.0,0.,24.0,0.,24.0,0.,24.0
1979-08-02 09:26:54.720 ,4,0,0.,24.0,0.,24.0,0.,24.0,0.,24.0
1979-08-02 09:27:18.720 ,5,1,0.,24.0,0.,24.0,0.,24.0,0.,24.0
1979-08-02 09:27:42.720 ,5,0,0.,24.0,0.,24.0,0.,24.0,0.,24.0
1979-08-02 09:28:06.720 ,6,1,0.,24.0,0.,24.0,0.,24.0,0.,24.0
1979-08-02 09:28:30.720 ,6,0,0.,24.0,0.,24.0,0.,24.0,0.,24.0
1979-08-02 09:28:54.720 ,7,1,0.,24.0,0.,24.0,0.,24.0,0.,24.0
1979-08-02 09:29:18.720 ,7,0,0.,24.0,0.,24.0,0.,24.0,0.,24.0
1979-08-02 09:29:42.720 ,7,1,0.,24.0,0.,24.0,0.,24.0,0.,24.0
1979-08-02 09:30:06.720 ,7,0,0.,24.0,0.,24.0,0.,24.0,0.,24.0
1979-08-02 09:30:30.720 ,6,1,0.,24.0,0.,24.0,0.,24.0,0.,24.0
1979-08-02 09:30:54.720 ,6,0,0.,24.0,0.,24.0,0.,24.0,0.,24.0
1979-08-02 09:31:18.720 ,0,0,0.,24.0,0.,24.0,0.,24.0,0.,24.0
1979-08-02 09:31:42.720 ,0,0,0.,24.0,0.,24.0,0.,24.0,0.,24.0
1979-08-02 09:32:06.720 ,4,1,0.,24.0,0.,24.0,0.,24.0,0.,24.0
1979-08-02 09:32:30.720 ,4,0,0.,24.0,0.,24.0,0.,24.0,0.,24.0
1979-08-02 09:32:54.720 ,3,1,0.,24.0,0.,24.0,0.,24.0,0.,24.0
1979-08-02 09:33:18.720 ,3,0,0.,24.0,0.,24.0,0.,24.0,0.,24.0
1979-08-02 09:33:42.720 ,2,1,0.,24.0,0.,24.0,0.,24.0,0.,24.0
1979-08-02 09:34:06.720 ,2,0,0.,24.0,0.,24.0,0.,24.0,0.,24.0
1979-08-02 09:34:30.720 ,1,1,0.,24.0,0.,24.0,0.,24.0,0.,24.0
1979-08-02 09:34:54.720 ,1,0,0.,24.0,0.,24.0,0.,24.0,0.,24.0
1979-08-02 09:35:18.720 ,0,1,0.,24.0,0.,24.0,0.,24.0,0.,24.0
1979-08-02 09:35:42.720 ,0,0,0.,24.0,0.,24.0,0.,24.0,0.,24.0
1979-08-02 09:36:06.720 ,0,1,0.,24.0,0.,24.0,0.,24.0,0.,24.0
1979-08-02 09:36:30.720 ,0,0,0.,24.0,0.,24.0,0.,24.0,0.,24.0
1979-08-02 09:36:54.720 ,1,1,0.,24.0,0.,24.0,0.,24.0,0.,24.0
1979-08-02 09:37:18.720 ,1,0,0.,24.0,0.,24.0,0.,24.0,0.,24.0
1979-08-02 09:37:42.720 ,2,1,0.,24.0,0.,24.0,0.,24.0,0.,24.0
1979-08-02 09:38:06.720 ,2,0,0.,24.0,0.,24.0,0.,24.0,0.,24.0
1979-08-02 09:38:30.720 ,3,1,0.,24.0,0.,24.0,0.,24.0,0.,24.0
1979-08-02 09:38:54.720 ,3,0,0.,24.0,0.,24.0,0.,24.0,0.,24.0
1979-08-02 09:39:18.720 ,4,1,0.,24.0,0.,24.0,0.,24.0,0.,24.0
1979-08-02 09:39:42.720 ,4,0,0.,24.0,0.,24.0,0.,24.0,0.,24.0
1979-08-02 09:40:06.720 ,5,1,0.,24.0,0.,24.0,0.,24.0,0.,24.0
1979-08-02 09:40:30.720 ,5,0,0.,24.0,0.,24.0,0.,24.0,0.,24.0
1979-08-02 09:40:54.720 ,6,1,0.,24.0,0.,24.0,0.,24.0,0.,24.0
1979-08-02 09:41:18.720 ,6,0,0.,24.0,0.,24.0,0.,24.0,0.,24.0
1979-08-02 09:41:42.720 ,7,1,0.,24.0,0.,24.0,0.,24.0,0.,24.0
1979-08-02 09:42:06.720 ,7,0,0.,24.0,0.,24.0,0.,24.0,0.,24.0
1979-08-02 09:42:30.720 ,7,1,0.,24.0,0.,24.0,0.,24.0,0.,24.0
1979-08-02 09:42:54.720 ,7,0,0.,24.0,0.,24.0,0.,24.0,0.,24.0
1979-08-02 09:43:18.720 ,6,1,0.,24.0,0.,24.0,0.,24.0,0.,24.0
1979-08-02 09:43:42.720 ,6,0,0.,24.0,0.,24.0,0.,24.0,0.,24.0
1979-08-02 09:44:06.720 ,5,1,0.,24.0,0.,24.0,0.,24.0,0.,24.0
1979-08-02 09:44:30.720 ,5,0,0.,24.0,0.,24.0,0.,24.0,0.,24.0
1979-08-02 09:44:54.720 ,4,1,1.,24.0,0.,24.0,0.,24.0,0.,24.0
1979-08-02 09:45:18.720 ,4,0,0.,24.0,0.,24.0,0.,24.0,0.,24.0
1979-08-02 09:45:42.720 ,3,1,0.,24.0,0.,24.0,0.,24.0,0.,24.0
1979-08-02 09:46:06.720 ,3,0,0.,24.0,0.,24.0,0.,24.0,0.,24.0
1979-08-02 09:46:30.720 ,2,1,0.,24.0,0.,24.0,0.,24.0,0.,24.0
1979-08-02 09:46:54.720 ,2,0,0.,24.0,0.,24.0,0.,24.0,0.,24.0
1979-08-02 09:47:18.720 ,1,1,0.,24.0,0.,24.0,0.,24.0,0.,24.0
1979-08-02 09:47:42.720 ,1,0,0.,24.0,0.,24.0,0.,24.0,0.,24.0
1979-08-02 09:48:06.720 ,0,1,0.,24.0,0.,24.0,0.,24.0,0.,24.0
1979-08-02 09:48:30.720 ,0,0,0.,24.0,0.,24.0,0.,24.0,0.,24.0
1979-08-02 09:48:54.720 ,0,1,0.,24.0,0.,24.0,0.,24.0,0.,24.0
1979-08-02 09:49:18.720 ,0,0,0.,24.0,0.,24.0,0.,24.0,0.,24.0
1979-08-02 09:49:42.720 ,1,1,0.,24.0,0.,24.0,0.,24.0,0.,24.0
1979-08-02 09:50:06.720 ,1,0,0.,24.0,0.,24.0,0.,24.0,0.,24.0
1979-08-02 09:50:30.720 ,2,1,0.,24.0,0.,24.0,0.,24.0,0.,24.0
1979-08-02 09:50:54.720 ,2,0,0.,24.0,0.,24.0,0.,24.0,0.,24.0
1979-08-02 09:51:18.720 ,3,1,0.,24.0,0.,24.0,0.,24.0,0.,24.0
1979-08-02 09:51:42.720 ,3,0,0.,24.0,0.,24.0,0.,24.0,0.,24.0
1979-08-02 09:52:06.720 ,4,1,0.,24.0,0.,24.0,0.,24.0,0.,24.0
1979-08-02 09:52:30.720 ,4,0,0.,24.0,0.,24.0,0.,24.0,0.,24.0
1979-08-02 09:52:54.720 ,5,1,0.,24.0,0.,24.0,0.,24.0,0.,24.0
1979-08-02 09:53:18.720 ,5,0,0.,24.0,0.,24.0,0.,24.0,0.,24.0
1979-08-02 09:53:42.720 ,6,1,0.,24.0,0.,24.0,0.,24.0,0.,24.0
1979-08-02 09:54:06.720 ,6,0,0.,24.0,0.,24.0,0.,24.0,0.,24.0
1979-08-02 09:54:30.720 ,7,0,0.,24.0,0.,24.0,0.,24.0,0.,24.0
1979-08-02 09:54:54.720 ,7,0,0.,24.0,0.,24.0,0.,24.0,0.,24.0
1979-08-02 09:55:18.720 ,5,1,0.,24.0,0.,24.0,0.,24.0,0.,24.0
1979-08-02 09:55:42.720 ,1,1,0.,24.0,0.,24.0,0.,24.0,0.,24.0
1979-08-02 09:56:06.720 ,2,1,0.,24.0,0.,24.0,0.,24.0,0.,24.0
1979-08-02 09:56:30.720 ,6,1,0.,24.0,0.,24.0,0.,24.0,0.,24.0
1979-08-02 09:56:54.720 ,5,1,0.,24.0,0.,24.0,0.,24.0,0.,24.0
1979-08-02 09:57:18.720 ,1,1,0.,24.0,0.,24.0,0.,24.0,0.,24.0
1979-08-02 09:57:42.720 ,2,1,0.,24.0,0.,24.0,0.,24.0,0.,24.0
1979-08-02 09:58:06.720 ,6,1,0.,24.0,0.,24.0,0.,24.0,0.,24.0
1979-08-02 09:58:30.720 ,5,1,1.,24.0,0.,24.0,0.,24.0,0.,24.0
1979-08-02 09:58:54.720 ,1,1,0.,24.0,0.,24.0,0.,24.0,0.,24.0
1979-08-02 09:59:18.720 ,2,1,0.,24.0,0.,24.0,0.,24.0,0.,24.0
1979-08-02 09:59:42.720 ,6,1,0.,24.0,0.,24.0,0.,24.0,0.,24.0
1979-08-02 10:00:06.720 ,5,1,0.,24.0,0.,24.0,0.,24.0,0.,24.0
1979-08-02 10:00:30.720 ,1,1,0.,24.0,0.,24.0,0.,24.0,0.,24.0
1979-08-02 10:00:54.720 ,2,1,0.,24.0,0.,24.0,0.,24.0,0.,24.0
1979-08-02 10:01:18.720 ,6,1,0.,24.0,0.,24.0,0.,24.0,0.,24.0
1979-08-02 10:01:42.720 ,5,1,0.,24.0,0.,24.0,0.,24.0,0.,24.0
1979-08-02 10:02:06.720 ,1,1,0.,24.0,0.,24.0,0.,24.0,0.,24.0
1979-08-02 10:02:30.720 ,2,1,0.,24.0,0.,24.0,0.,24.0,0.,24.0
1979-08-02 10:02:54.720 ,6,1,0.,24.0,0.,24.0,0.,24.0,0.,24.0
1979-08-02 10:03:18.720 ,5,1,0.,24.0,0.,24.0,0.,24.0,0.,24.0
1979-08-02 10:03:42.720 ,1,1,1.,24.0,0.,24.0,0.,24.0,0.,24.0
1979-08-02 10:04:06.720 ,2,1,0.,24.0,0.,24.0,0.,24.0,0.,24.0
1979-08-02 10:04:30.720 ,6,1,0.,24.0,0.,24.0,0.,24.0,0.,24.0
1979-08-02 10:04:54.720 ,5,1,0.,24.0,0.,24.0,0.,24.0,0.,24.0
1979-08-02 10:05:18.720 ,1,1,0.,24.0,0.,24.0,0.,24.0,0.,24.0
1979-08-02 10:05:42.720 ,0,0,0.,24.0,0.,24.0,0.,24.0,0.,24.0
1979-08-02 10:06:06.720 ,0,0,0.,24.0,0.,24.0,0.,24.0,0.,24.0
1979-08-02 10:06:30.720 ,5,1,0.,24.0,0.,24.0,0.,24.0,0.,24.0
1979-08-02 10:06:54.720 ,5,0,0.,24.0,0.,24.0,0.,24.0,0.,24.0
1979-08-02 10:07:18.720 ,4,1,0.,24.0,0.,24.0,0.,24.0,0.,24.0
1979-08-02 10:07:42.720 ,4,0,0.,24.0,0.,24.0,0.,24.0,0.,24.0
1979-08-02 10:08:06.720 ,3,1,0.,24.0,0.,24.0,0.,24.0,0.,24.0
1979-08-02 10:08:30.720 ,3,0,0.,24.0,0.,24.0,0.,24.0,0.,24.0
1979-08-02 10:08:54.720 ,2,1,0.,24.0,0.,24.0,0.,24.0,0.,24.0
1979-08-02 10:09:18.720 ,2,0,1.,24.0,0.,24.0,0.,24.0,0.,24.0
1979-08-02 10:09:42.720 ,1,1,0.,24.0,0.,24.0,0.,24.0,0.,24.0
1979-08-02 10:10:06.720 ,1,0,0.,24.0,0.,24.0,0.,24.0,0.,24.0
1979-08-02 10:10:30.720 ,0,1,0.,24.0,0.,24.0,0.,24.0,0.,24.0
1979-08-02 10:10:54.720 ,0,0,0.,24.0,0.,24.0,0.,24.0,0.,24.0
1979-08-02 10:11:18.720 ,0,1,0.,24.0,0.,24.0,0.,24.0,0.,24.0
1979-08-02 10:11:42.720 ,0,0,0.,24.0,0.,24.0,0.,24.0,0.,24.0
1979-08-02 10:12:06.720 ,1,1,0.,24.0,0.,24.0,0.,24.0,0.,24.0
1979-08-02 10:12:30.720 ,1,0,0.,24.0,0.,24.0,0.,24.0,0.,24.0
1979-08-02 10:12:54.720 ,2,1,0.,24.0,0.,24.0,0.,24.0,0.,24.0
1979-08-02 10:13:18.720 ,2,0,0.,24.0,0.,24.0,0.,24.0,0.,24.0
1979-08-02 10:13:42.720 ,3,1,0.,24.0,0.,24.0,0.,24.0,0.,24.0
1979-08-02 10:14:06.720 ,3,0,0.,24.0,0.,24.0,0.,24.0,0.,24.0
1979-08-02 10:14:30.720 ,4,1,0.,24.0,0.,24.0,0.,24.0,0.,24.0
1979-08-02 10:14:54.720 ,4,0,0.,24.0,0.,24.0,0.,24.0,0.,24.0
1979-08-02 10:15:18.720 ,5,1,0.,24.0,0.,24.0,0.,24.0,0.,24.0
1979-08-02 10:15:42.720 ,5,0,0.,24.0,0.,24.0,0.,24.0,0.,24.0
1979-08-02 10:16:06.720 ,6,1,1.,24.0,0.,24.0,0.,24.0,0.,24.0
1979-08-02 10:16:30.720 ,6,0,0.,24.0,0.,24.0,0.,24.0,0.,24.0
1979-08-02 10:16:54.720 ,7,1,0.,24.0,0.,24.0,0.,24.0,0.,24.0
1979-08-02 10:17:18.720 ,7,0,0.,24.0,0.,24.0,0.,24.0,0.,24.0
1979-08-02 10:17:42.720 ,7,1,0.,24.0,0.,24.0,0.,24.0,0.,24.0
1979-08-02 10:18:06.720 ,7,0,0.,24.0,0.,24.0,0.,24.0,0.,24.0
1979-08-02 10:18:30.720 ,6,1,0.,24.0,0.,24.0,0.,24.0,0.,24.0
1979-08-02 10:18:54.720 ,6,0,0.,24.0,0.,24.0,0.,24.0,1.,24.0
1979-08-02 10:19:18.720 ,5,1,0.,24.0,0.,24.0,0.,24.0,0.,24.0
1979-08-02 10:19:42.720 ,5,0,0.,24.0,0.,24.0,0.,24.0,0.,24.0
1979-08-02 10:20:06.720 ,4,1,0.,24.0,0.,24.0,0.,24.0,0.,24.0
1979-08-02 10:20:30.720 ,4,0,0.,24.0,0.,24.0,0.,24.0,0.,24.0
1979-08-02 10:20:54.720 ,3,1,0.,24.0,0.,24.0,0.,24.0,0.,24.0
1979-08-02 10:21:18.720 ,3,0,0.,24.0,0.,24.0,0.,24.0,0.,24.0
1979-08-02 10:21:42.720 ,2,1,0.,24.0,0.,24.0,0.,24.0,0.,24.0
1979-08-02 10:22:06.720 ,2,0,0.,24.0,0.,24.0,0.,24.0,0.,24.0
1979-08-02 10:22:30.720 ,1,1,0.,24.0,0.,24.0,0.,24.0,0.,24.0
1979-08-02 10:22:54.720 ,1,0,0.,24.0,0.,24.0,0.,24.0,0.,24.0
1979-08-02 10:23:18.720 ,0,1,0.,24.0,0.,24.0,0.,24.0,0.,24.0
1979-08-02 10:23:42.720 ,0,0,0.,24.0,0.,24.0,0.,24.0,0.,24.0
1979-08-02 10:24:06.720 ,0,1,0.,24.0,0.,24.0,0.,24.0,0.,24.0
1979-08-02 10:24:30.720 ,0,0,0.,24.0,0.,24.0,0.,24.0,0.,24.0
1979-08-02 10:24:54.720 ,1,1,0.,24.0,0.,24.0,0.,24.0,0.,24.0
1979-08-02 10:25:18.720 ,1,0,0.,24.0,0.,24.0,0.,24.0,0.,24.0
1979-08-02 10:25:42.720 ,2,1,0.,24.0,0.,24.0,0.,24.0,0.,24.0
1979-08-02 10:26:06.720 ,2,0,0.,24.0,0.,24.0,0.,24.0,0.,24.0
1979-08-02 10:26:30.720 ,3,1,0.,24.0,0.,24.0,0.,24.0,0.,24.0
1979-08-02 10:26:54.720 ,3,0,0.,24.0,0.,24.0,0.,24.0,0.,24.0
1979-08-02 10:27:18.720 ,4,1,0.,24.0,0.,24.0,0.,24.0,0.,24.0
1979-08-02 10:27:42.720 ,4,0,0.,24.0,0.,24.0,0.,24.0,0.,24.0
1979-08-02 10:28:06.720 ,5,1,0.,24.0,0.,24.0,0.,24.0,0.,24.0
1979-08-02 10:28:30.720 ,5,0,0.,24.0,0.,24.0,0.,24.0,0.,24.0
1979-08-02 10:28:54.720 ,6,1,0.,24.0,0.,24.0,0.,24.0,0.,24.0
1979-08-02 10:29:18.720 ,6,0,0.,24.0,0.,24.0,0.,24.0,0.,24.0
1979-08-02 10:29:42.720 ,7,1,0.,24.0,0.,24.0,0.,24.0,0.,24.0
1979-08-02 10:30:06.720 ,7,0,0.,24.0,0.,24.0,0.,24.0,0.,24.0
1979-08-02 10:30:30.720 ,7,1,0.,24.0,0.,24.0,0.,24.0,0.,24.0
1979-08-02 10:30:54.720 ,7,0,0.,24.0,0.,24.0,0.,24.0,0.,24.0
1979-08-02 10:31:18.720 ,6,1,0.,24.0,0.,24.0,0.,24.0,0.,24.0
1979-08-02 10:31:42.720 ,6,0,0.,24.0,0.,24.0,0.,24.0,0.,24.0
1979-08-02 10:32:06.720 ,5,1,0.,24.0,0.,24.0,0.,24.0,0.,24.0
1979-08-02 10:32:30.720 ,5,0,0.,24.0,0.,24.0,0.,24.0,0.,24.0
1979-08-02 10:32:54.720 ,4,1,0.,24.0,0.,24.0,0.,24.0,0.,24.0
1979-08-02 10:33:18.720 ,4,0,0.,24.0,0.,24.0,0.,24.0,0.,24.0
1979-08-02 10:33:42.720 ,3,1,0.,24.0,0.,24.0,0.,24.0,0.,24.0
1979-08-02 10:34:06.720 ,3,0,0.,24.0,0.,24.0,0.,24.0,0.,24.0
1979-08-02 10:34:30.720 ,2,1,0.,24.0,0.,24.0,0.,24.0,0.,24.0
1979-08-02 10:34:54.720 ,2,0,0.,24.0,0.,24.0,0.,24.0,0.,24.0
1979-08-02 10:35:18.720 ,1,1,0.,24.0,0.,24.0,0.,24.0,0.,24.0
1979-08-02 10:35:42.720 ,1,0,0.,24.0,0.,24.0,0.,24.0,0.,24.0
1979-08-02 10:36:06.720 ,0,1,0.,24.0,0.,24.0,0.,24.0,0.,24.0
1979-08-02 10:36:30.720 ,0,0,0.,24.0,0.,24.0,0.,24.0,0.,24.0
1979-08-02 10:36:54.720 ,0,1,0.,24.0,0.,24.0,0.,24.0,0.,24.0
1979-08-02 10:37:18.720 ,0,0,0.,24.0,0.,24.0,0.,24.0,0.,24.0
1979-08-02 10:37:42.720 ,1,1,0.,24.0,0.,24.0,0.,24.0,0.,24.0
1979-08-02 10:38:06.720 ,1,0,0.,24.0,0.,24.0,0.,24.0,0.,24.0
1979-08-02 10:38:30.720 ,2,1,0.,24.0,0.,24.0,0.,24.0,0.,24.0
1979-08-02 10:38:54.720 ,2,0,0.,24.0,0.,24.0,0.,24.0,0.,24.0
1979-08-02 10:39:18.720 ,3,1,0.,24.0,0.,24.0,0.,24.0,0.,24.0
1979-08-02 10:39:42.720 ,3,0,0.,24.0,0.,24.0,0.,24.0,0.,24.0
1979-08-02 10:40:06.720 ,4,1,0.,24.0,0.,24.0,0.,24.0,0.,24.0
1979-08-02 10:40:30.720 ,4,0,0.,24.0,0.,24.0,0.,24.0,0.,24.0
1979-08-02 10:40:54.720 ,5,1,0.,24.0,0.,24.0,0.,24.0,0.,24.0
1979-08-02 10:41:18.720 ,5,0,0.,24.0,0.,24.0,0.,24.0,0.,24.0
1979-08-02 10:41:42.720 ,6,1,0.,24.0,0.,24.0,0.,24.0,0.,24.0
1979-08-02 10:42:06.720 ,6,0,0.,24.0,0.,24.0,0.,24.0,0.,24.0
1979-08-02 10:42:30.720 ,7,0,0.,24.0,0.,24.0,0.,24.0,0.,24.0
1979-08-02 10:42:54.720 ,7,0,0.,24.0,0.,24.0,0.,24.0,0.,24.0
1979-08-02 10:43:18.720 ,5,1,0.,24.0,0.,24.0,0.,24.0,0.,24.0
1979-08-02 10:43:42.720 ,1,1,0.,24.0,0.,24.0,0.,24.0,0.,24.0
1979-08-02 10:44:06.720 ,2,1,0.,24.0,0.,24.0,0.,24.0,0.,24.0
1979-08-02 10:44:30.720 ,6,1,0.,24.0,0.,24.0,0.,24.0,0.,24.0
1979-08-02 10:44:54.720 ,5,1,0.,24.0,0.,24.0,0.,24.0,0.,24.0
1979-08-02 10:45:18.720 ,1,1,0.,24.0,0.,24.0,0.,24.0,0.,24.0
1979-08-02 10:45:42.720 ,2,1,0.,24.0,0.,24.0,0.,24.0,0.,24.0
1979-08-02 10:46:06.720 ,6,1,0.,24.0,0.,24.0,0.,24.0,0.,24.0
1979-08-02 10:46:30.720 ,5,1,0.,24.0,0.,24.0,0.,24.0,0.,24.0
1979-08-02 10:46:54.720 ,0,0,0.,24.0,0.,24.0,0.,24.0,0.,24.0
1979-08-02 10:47:18.720 ,0,0,0.,24.0,0.,24.0,0.,24.0,0.,24.0
1979-08-02 10:47:42.720 ,7,1,,0,,0,,0,,0
1979-08-02 10:48:06.720 ,5,1,0.,24.0,0.,24.0,0.,24.0,0.,24.0
1979-08-02 10:48:30.720 ,1,1,0.,24.0,0.,24.0,0.,24.0,0.,24.0
1979-08-02 10:48:54.720 ,2,1,0.,24.0,0.,24.0,0.,24.0,0.,24.0
1979-08-02 10:49:18.720 ,6,1,0.,24.0,0.,24.0,0.,24.0,0.,24.0
1979-08-02 10:49:42.720 ,5,1,0.,24.0,0.,24.0,0.,24.0,0.,24.0
1979-08-02 10:50:06.720 ,1,1,0.,24.0,0.,24.0,0.,24.0,0.,24.0
1979-08-02 10:50:30.720 ,2,1,0.,24.0,0.,24.0,0.,24.0,0.,24.0
1979-08-02 10:50:54.720 ,6,1,0.,24.0,0.,24.0,0.,24.0,0.,24.0
1979-08-02 10:51:18.720 ,5,1,0.,24.0,0.,24.0,0.,24.0,0.,24.0
1979-08-02 10:51:42.720 ,1,1,0.,24.0,0.,24.0,0.,24.0,0.,24.0
1979-08-02 10:52:06.720 ,2,1,0.,24.0,0.,24.0,0.,24.0,0.,24.0
1979-08-02 10:52:30.720 ,6,1,0.,24.0,0.,24.0,0.,24.0,0.,24.0
1979-08-02 10:52:54.720 ,5,1,0.,24.0,0.,24.0,0.,24.0,0.,24.0
1979-08-02 10:53:18.720 ,1,1,0.,24.0,0.,24.0,0.,24.0,0.,24.0
1979-08-02 10:53:42.720 ,0,0,0.,24.0,0.,24.0,0.,24.0,0.,24.0
1979-08-02 10:54:06.720 ,0,0,0.,24.0,0.,24.0,0.,24.0,0.,24.0
1979-08-02 10:54:30.720 ,5,1,0.,24.0,0.,24.0,0.,24.0,0.,24.0
1979-08-02 10:54:54.720 ,5,0,0.,24.0,0.,24.0,0.,24.0,0.,24.0
1979-08-02 10:55:18.720 ,4,1,0.,24.0,0.,24.0,0.,24.0,0.,24.0
1979-08-02 10:55:42.720 ,4,0,0.,24.0,0.,24.0,0.,24.0,0.,24.0
1979-08-02 10:56:06.720 ,3,1,0.,24.0,0.,24.0,0.,24.0,0.,24.0
1979-08-02 10:56:30.720 ,3,0,0.,24.0,0.,24.0,0.,24.0,0.,24.0
1979-08-02 10:56:54.720 ,2,1,0.,24.0,0.,24.0,0.,24.0,0.,24.0
1979-08-02 10:57:18.720 ,2,0,0.,24.0,0.,24.0,0.,24.0,0.,24.0
1979-08-02 10:57:42.720 ,1,1,0.,24.0,0.,24.0,0.,24.0,0.,24.0
1979-08-02 10:58:06.720 ,1,0,0.,24.0,0.,24.0,0.,24.0,0.,24.0
1979-08-02 10:58:30.720 ,0,1,0.,24.0,0.,24.0,0.,24.0,0.,24.0
1979-08-02 10:58:54.720 ,0,0,0.,24.0,0.,24.0,0.,24.0,0.,24.0
1979-08-02 10:59:18.720 ,0,1,0.,24.0,0.,24.0,0.,24.0,0.,24.0
1979-08-02 10:59:42.720 ,0,0,1.,24.0,0.,24.0,0.,24.0,0.,24.0
1979-08-02 11:00:06.720 ,1,1,0.,24.0,0.,24.0,0.,24.0,0.,24.0
1979-08-02 11:00:30.720 ,1,0,0.,24.0,0.,24.0,0.,24.0,0.,24.0
1979-08-02 11:00:54.720 ,2,1,0.,24.0,0.,24.0,0.,24.0,0.,24.0
1979-08-02 11:01:18.720 ,2,0,0.,24.0,0.,24.0,0.,24.0,0.,24.0
1979-08-02 11:01:42.720 ,3,1,0.,24.0,0.,24.0,0.,24.0,0.,24.0
1979-08-02 11:02:06.720 ,3,0,0.,24.0,0.,24.0,0.,24.0,0.,24.0
1979-08-02 11:02:30.720 ,4,1,0.,24.0,0.,24.0,0.,24.0,0.,24.0
1979-08-02 11:02:54.720 ,4,0,0.,24.0,0.,24.0,0.,24.0,0.,24.0
1979-08-02 11:03:18.720 ,0,0,0.,24.0,0.,24.0,0.,24.0,0.,24.0
1979-08-02 11:03:42.720 ,0,0,,0,,0,,0,,0
1979-08-02 11:04:43.320 ,0,0,,0,,0,,0,,0
1979-08-02 11:04:54.720 ,7,1,0.,24.0,0.,24.0,0.,24.0,0.,24.0
1979-08-02 11:05:18.720 ,7,0,0.,24.0,0.,24.0,0.,24.0,0.,24.0
1979-08-02 11:05:42.720 ,7,1,0.,24.0,0.,24.0,0.,24.0,0.,24.0
1979-08-02 11:06:06.720 ,7,0,0.,24.0,0.,24.0,0.,24.0,0.,24.0
1979-08-02 11:06:30.720 ,6,1,0.,24.0,0.,24.0,0.,24.0,0.,24.0
1979-08-02 11:06:54.720 ,6,0,0.,24.0,0.,24.0,0.,24.0,0.,24.0
1979-08-02 11:07:18.720 ,5,1,0.,24.0,0.,24.0,0.,24.0,0.,24.0
1979-08-02 11:07:42.720 ,5,0,0.,24.0,0.,24.0,0.,24.0,0.,24.0
1979-08-02 11:08:06.720 ,4,1,0.,24.0,0.,24.0,0.,24.0,0.,24.0
1979-08-02 11:08:30.720 ,4,0,0.,24.0,0.,24.0,0.,24.0,0.,24.0
1979-08-02 11:08:54.720 ,3,1,0.,24.0,0.,24.0,0.,24.0,0.,24.0
1979-08-02 11:09:18.720 ,3,0,0.,24.0,0.,24.0,0.,24.0,0.,24.0
1979-08-02 11:09:42.720 ,2,1,0.,24.0,0.,24.0,0.,24.0,0.,24.0
1979-08-02 11:10:06.720 ,2,0,0.,24.0,0.,24.0,0.,24.0,0.,24.0
1979-08-02 11:10:30.720 ,1,1,0.,24.0,0.,24.0,0.,24.0,0.,24.0
1979-08-02 11:10:54.720 ,1,0,0.,24.0,0.,24.0,0.,24.0,0.,24.0
1979-08-02 11:11:18.720 ,0,1,0.,24.0,0.,24.0,0.,24.0,0.,24.0
1979-08-02 11:11:42.720 ,0,0,0.,24.0,0.,24.0,0.,24.0,0.,24.0
1979-08-02 11:12:06.720 ,0,1,0.,24.0,0.,24.0,0.,24.0,0.,24.0
1979-08-02 11:12:30.720 ,0,0,0.,24.0,0.,24.0,0.,24.0,0.,24.0
1979-08-02 11:12:54.720 ,1,1,0.,24.0,0.,24.0,0.,24.0,0.,24.0
1979-08-02 11:13:18.720 ,1,0,0.,24.0,0.,24.0,0.,24.0,0.,24.0
1979-08-02 11:13:42.720 ,2,1,0.,24.0,0.,24.0,0.,24.0,0.,24.0
1979-08-02 11:14:06.720 ,2,0,0.,24.0,0.,24.0,0.,24.0,0.,24.0
1979-08-02 11:14:30.720 ,3,1,1.,24.0,0.,24.0,0.,24.0,0.,24.0
1979-08-02 11:14:54.720 ,3,0,0.,24.0,0.,24.0,0.,24.0,0.,24.0
1979-08-02 11:15:18.720 ,4,1,0.,24.0,0.,24.0,0.,24.0,0.,24.0
1979-08-02 11:15:42.720 ,4,0,1.,24.0,0.,24.0,0.,24.0,0.,24.0
1979-08-02 11:16:06.720 ,5,1,0.,24.0,0.,24.0,0.,24.0,0.,24.0
1979-08-02 11:16:30.720 ,5,0,0.,24.0,0.,24.0,0.,24.0,0.,24.0
1979-08-02 11:16:54.720 ,6,1,0.,24.0,0.,24.0,0.,24.0,0.,24.0
1979-08-02 11:17:18.720 ,6,0,0.,24.0,0.,24.0,0.,24.0,0.,24.0
1979-08-02 11:17:42.720 ,7,1,0.,24.0,0.,24.0,0.,24.0,0.,24.0
1979-08-02 11:18:06.720 ,7,0,0.,24.0,0.,24.0,0.,24.0,0.,24.0
1979-08-02 11:18:30.720 ,7,1,0.,24.0,0.,24.0,0.,24.0,0.,24.0
1979-08-02 11:18:54.720 ,7,0,0.,24.0,0.,24.0,0.,24.0,0.,24.0
1979-08-02 11:19:18.720 ,6,1,0.,24.0,0.,24.0,0.,24.0,0.,24.0
1979-08-02 11:19:42.720 ,6,0,0.,24.0,0.,24.0,0.,24.0,0.,24.0
1979-08-02 11:20:06.720 ,5,1,0.,24.0,0.,24.0,0.,24.0,0.,24.0
1979-08-02 11:20:30.720 ,5,0,0.,24.0,0.,24.0,0.,24.0,0.,24.0
1979-08-02 11:20:54.720 ,4,1,1.,24.0,0.,24.0,0.,24.0,0.,24.0
1979-08-02 11:21:18.720 ,4,0,0.,24.0,0.,24.0,0.,24.0,0.,24.0
1979-08-02 11:21:42.720 ,3,1,0.,24.0,0.,24.0,0.,24.0,0.,24.0
1979-08-02 11:22:06.720 ,3,0,0.,24.0,0.,24.0,0.,24.0,0.,24.0
1979-08-02 11:22:30.720 ,2,1,0.,24.0,0.,24.0,0.,24.0,0.,24.0
1979-08-02 11:22:54.720 ,2,0,0.,24.0,0.,24.0,0.,24.0,0.,24.0
1979-08-02 11:23:18.720 ,1,1,0.,24.0,0.,24.0,0.,24.0,0.,24.0
1979-08-02 11:23:42.720 ,1,0,0.,24.0,0.,24.0,0.,24.0,0.,24.0
1979-08-02 11:24:06.720 ,0,1,0.,24.0,0.,24.0,0.,24.0,0.,24.0
1979-08-02 11:24:30.720 ,0,0,0.,24.0,0.,24.0,0.,24.0,0.,24.0
1979-08-02 11:24:54.720 ,0,1,0.,24.0,0.,24.0,0.,24.0,0.,24.0
1979-08-02 11:25:18.720 ,0,0,0.,24.0,0.,24.0,0.,24.0,0.,24.0
1979-08-02 11:25:42.720 ,1,1,0.,24.0,0.,24.0,0.,24.0,0.,24.0
1979-08-02 11:26:06.720 ,1,0,0.,24.0,0.,24.0,0.,24.0,0.,24.0
1979-08-02 11:26:30.720 ,2,1,0.,24.0,0.,24.0,0.,24.0,0.,24.0
1979-08-02 11:26:54.720 ,2,0,0.,24.0,0.,24.0,0.,24.0,0.,24.0
1979-08-02 11:27:18.720 ,3,1,0.,24.0,0.,24.0,0.,24.0,0.,24.0
1979-08-02 11:27:42.720 ,3,0,0.,24.0,0.,24.0,0.,24.0,0.,24.0
1979-08-02 11:28:06.720 ,4,1,0.,24.0,0.,24.0,0.,24.0,0.,24.0
1979-08-02 11:28:30.720 ,4,0,0.,24.0,0.,24.0,0.,24.0,0.,24.0
1979-08-02 11:28:54.720 ,5,1,0.,24.0,0.,24.0,0.,24.0,0.,24.0
1979-08-02 11:29:18.720 ,5,0,0.,24.0,0.,24.0,0.,24.0,0.,24.0
1979-08-02 11:29:42.720 ,6,1,0.,24.0,0.,24.0,0.,24.0,0.,24.0
1979-08-02 11:30:06.720 ,6,0,0.,24.0,0.,24.0,0.,24.0,0.,24.0
1979-08-02 11:30:30.720 ,7,0,0.,24.0,0.,24.0,0.,24.0,0.,24.0
1979-08-02 11:30:54.720 ,7,0,0.,24.0,0.,24.0,0.,24.0,0.,24.0
1979-08-02 11:31:18.720 ,5,1,0.,24.0,0.,24.0,0.,24.0,0.,24.0
1979-08-02 11:31:42.720 ,1,1,0.,24.0,0.,24.0,0.,24.0,0.,24.0
1979-08-02 11:32:06.720 ,2,1,0.,24.0,0.,24.0,0.,24.0,0.,24.0
1979-08-02 11:32:30.720 ,6,1,0.,24.0,0.,24.0,0.,24.0,0.,24.0
1979-08-02 11:32:54.720 ,5,1,0.,24.0,0.,24.0,0.,24.0,0.,24.0
1979-08-02 11:33:18.720 ,1,1,0.,24.0,0.,24.0,0.,24.0,0.,24.0
1979-08-02 11:33:42.720 ,2,1,0.,24.0,0.,24.0,0.,24.0,0.,24.0
1979-08-02 11:34:06.720 ,6,1,0.,24.0,0.,24.0,0.,24.0,0.,24.0
1979-08-02 11:34:30.720 ,5,1,0.,24.0,0.,24.0,0.,24.0,0.,24.0
1979-08-02 11:34:54.720 ,1,1,0.,24.0,0.,24.0,0.,24.0,0.,24.0
1979-08-02 11:35:18.720 ,2,1,0.,24.0,0.,24.0,0.,24.0,0.,24.0